DW7898 Weather Reports


time (UTC)temp
F
wind
direction
speed
knots
gust
knots
rain 1hr
in
rain 24hr
in
rain mn
in
humidity
%
barometer
mb
20260505114340 68 57 0.9 4.3 0.00 0.06 0.00 56 1011.9
20260505113349 67 146 1.7 2.6 0.00 0.06 0.00 56 1012.1
20260505112350 66 152 0.9 5.2 0.00 0.06 0.00 59 1012.3
20260505111338 65 106 2.6 4.3 0.00 0.06 0.00 61 1012.5
20260505110336 64 122 0.0 4.3 0.00 0.06 0.00 63 1012.5
20260505101335 64 244 1.7 7.0 0.00 0.06 0.00 61 1012.7
20260505100339 64 213 2.6 6.1 0.00 0.06 0.00 61 1012.7
20260505095338 64 28 0.0 2.6 0.00 0.06 0.00 64 1012.6
20260505094356 63 56 0.0 2.6 0.00 0.06 0.00 69 1012.6
20260505093342 62 56 1.7 6.1 0.00 0.06 0.00 71 1012.5
20260505092345 61 120 2.6 5.2 0.00 0.06 0.00 73 1012.2
20260505091351 61 15 3.5 5.2 0.00 0.06 0.00 74 1012.1
20260505090337 61 255 2.6 5.2 0.00 0.06 0.00 73 1013.0
20260505085338 61 254 2.6 5.2 0.00 0.06 0.00 71 1013.0
20260505084337 61 269 2.6 5.2 0.00 0.06 0.00 69 1012.9
20260505083338 61 231 2.6 4.3 0.00 0.06 0.00 68 1012.8
20260505082338 61 79 0.0 0.0 0.00 0.06 0.00 70 1012.5
20260505081336 61 80 0.0 3.5 0.00 0.06 0.00 74 1012.5
20260505080355 60 90 1.7 5.2 0.00 0.06 0.00 76 1012.5
20260505075353 59 233 0.0 3.5 0.00 0.06 0.00 82 1012.5
20260505074336 57 218 0.0 2.6 0.00 0.06 0.00 84 1012.6
20260505073337 57 215 1.7 3.5 0.00 0.06 0.00 85 1012.9
20260505072354 57 209 1.7 2.6 0.00 0.06 0.00 89 1012.9
20260505071342 57 205 0.9 2.6 0.00 0.06 0.00 90 1012.8
20260505070347 56 202 0.0 2.6 0.00 0.06 0.00 92 1013.0
20260505065349 56 203 0.0 2.6 0.00 0.06 0.00 94 1012.9
20260505064355 56 217 0.9 1.7 0.00 0.06 0.00 95 1012.9
20260505063355 55 214 0.0 0.9 0.00 0.06 0.00 95 1012.8
20260505062355 54 214 0.0 1.7 0.00 0.06 0.00 95 1012.9
20260505061355 54 214 0.0 0.9 0.00 0.06 0.00 95 1012.9
20260505060340 53 214 0.0 0.0 0.00 0.06 0.00 95 1013.0
20260505055341 53 214 0.0 1.7 0.00 0.06 0.00 95 1013.0
20260505054345 54 214 0.9 1.7 0.00 0.06 0.00 96 1013.0
20260505053353 53 214 0.0 1.7 0.00 0.06 0.00 96 1012.8
20260505052352 53 214 0.0 2.6 0.00 0.06 0.00 96 1012.8
20260505051338 52 218 0.9 1.7 0.00 0.06 0.00 95 1012.9
20260505050344 52 218 0.9 1.7 0.00 0.06 0.00 95 1012.8
20260505041407 53 206 0.0 0.0 0.00 0.06 0.00 94 1013.0
20260505040402 53 206 0.0 0.0 0.00 0.06 0.00 94 1012.9
20260505035409 53 206 0.0 1.7 0.00 0.06 0.00 95 1013.0
20260505034401 53 206 0.9 2.6 0.00 0.06 0.00 94 1012.9
20260505033354 53 206 0.0 2.6 0.00 0.06 0.00 94 1012.8
20260505032403 53 206 0.9 2.6 0.00 0.06 0.00 94 1012.9
20260505031416 53 206 0.0 0.0 0.00 0.06 0.00 94 1012.9
20260505030409 53 206 1.7 2.6 0.00 0.06 0.00 94 1012.9
20260505025402 54 206 0.0 0.0 0.00 0.06 0.00 94 1012.9
20260505024359 54 206 0.0 0.0 0.00 0.06 0.00 94 1013.0
20260505023355 54 206 0.0 0.9 0.00 0.06 0.00 94 1013.0
20260505022408 54 206 0.9 3.5 0.00 0.06 0.00 93 1012.9
20260505021404 54 206 0.0 0.0 0.00 0.06 0.00 92 1012.9
20260505020357 54 206 0.0 0.9 0.00 0.06 0.00 93 1012.8
20260505015406 54 206 0.0 0.0 0.00 0.06 0.00 92 1012.8
20260505013403 55 206 0.9 1.7 0.00 0.06 0.00 93 1012.8
20260505012406 55 206 0.0 0.9 0.00 0.06 0.00 93 1012.9
20260505011404 55 206 0.9 3.5 0.00 0.06 0.00 93 1012.9
20260505010356 55 206 0.0 1.7 0.00 0.06 0.00 93 1013.0
20260505005400 55 206 0.9 4.3 0.01 0.06 0.00 93 1013.0
20260505003401 56 207 0.9 3.5 0.01 0.06 0.00 93 1012.9
20260505002358 56 208 0.0 4.3 0.01 0.06 0.00 93 1013.1
20260505001402 56 209 0.9 3.5 0.01 0.06 0.00 94 1013.1
20260505000413 56 209 0.9 1.7 0.01 0.06 0.00 93 1013.1
20260504235357 56 208 0.0 2.6 0.00 0.06 0.00 93 1013.1
20260504234405 56 209 0.9 4.3 0.00 0.06 0.00 93 1012.9
20260504233401 57 210 0.9 3.5 0.00 0.06 0.00 93 1013.0
20260504232354 57 209 1.7 2.6 0.00 0.06 0.00 92 1013.0
20260504231406 57 209 1.7 3.5 0.00 0.06 0.00 92 1013.0
20260504230413 57 209 0.9 2.6 0.00 0.06 0.00 92 1012.9
20260504225402 57 209 1.7 4.3 0.00 0.06 0.00 92 1012.9
20260504224403 57 210 0.9 3.5 0.00 0.06 0.00 91 1012.8
20260504223402 57 206 0.9 4.3 0.00 0.06 0.00 90 1012.6
20260504222354 57 206 0.9 6.1 0.00 0.06 0.00 90 1012.6
20260504221356 58 207 1.7 4.3 0.00 0.06 0.00 88 1012.7
20260504220400 58 204 0.9 2.6 0.00 0.06 0.00 88 1012.5
20260504215413 58 259 0.9 2.6 0.00 0.06 0.05 86 1012.4
20260504214354 59 258 0.9 3.5 0.01 0.06 0.05 85 1012.5
20260504213413 59 251 2.6 4.3 0.02 0.06 0.05 85 1012.6
20260504212419 60 168 0.9 3.5 0.02 0.06 0.05 83 1012.7
20260504211419 60 166 0.9 2.6 0.02 0.06 0.05 82 1012.8
20260504210411 60 291 0.0 1.7 0.02 0.06 0.05 81 1013.1
20260504205348 60 291 0.9 2.6 0.03 0.06 0.03 79 1012.9
20260504204415 60 291 0.0 5.2 0.02 0.07 0.03 78 1013.2
20260504203410 61 318 0.9 6.1 0.02 0.06 0.03 77 1013.3
20260504202356 61 259 4.3 11.3 0.01 0.06 0.02 76 1013.6
20260504201400 62 261 7.0 19.1 0.01 0.06 0.02 76 1013.5
20260504200400 63 253 7.8 12.2 0.01 0.06 0.02 83 1013.3
20260504195359 63 223 1.7 4.3 0.00 0.05 0.02 84 1012.7
20260504194358 63 219 0.9 3.5 0.00 0.05 0.02 83 1012.5
20260504193359 63 216 1.7 4.3 0.00 0.05 0.02 83 1012.4
20260504191359 63 220 3.5 4.3 0.00 0.05 0.02 81 1012.1
20260504190357 63 216 2.6 5.2 0.00 0.05 0.02 81 1012.1
20260504185413 63 211 2.6 4.3 0.00 0.05 0.02 81 1012.0
20260504184409 64 210 1.7 2.6 0.00 0.06 0.02 80 1011.8
20260504183405 64 210 2.6 4.3 0.00 0.06 0.02 79 1011.8
20260504182413 64 207 2.6 4.3 0.00 0.06 0.02 78 1011.6
20260504181409 64 181 0.9 5.2 0.00 0.06 0.02 78 1011.3
20260504180404 64 221 3.5 6.1 0.00 0.06 0.02 77 1011.3
20260504175358 65 229 1.7 4.3 0.00 0.06 0.02 77 1011.4
20260504174353 65 197 0.9 3.5 0.00 0.06 0.02 76 1011.3
20260504173424 65 116 0.9 3.5 0.00 0.06 0.02 76 1011.5
20260504172423 65 114 0.9 2.6 0.00 0.06 0.02 75 1011.6
20260504171413 65 110 0.0 1.7 0.00 0.06 0.02 76 1011.5
20260504170415 65 112 0.9 2.6 0.00 0.06 0.02 76 1011.6
20260504160415 64 127 2.6 4.3 0.01 0.06 0.02 77 1011.9
20260504150400 64 283 3.5 6.1 0.00 0.05 0.02 78 1012.4
20260504140352 66 214 5.2 10.4 0.00 0.05 0.02 71 1012.4
20260504130341 67 191 0.9 7.8 0.00 0.05 0.02 70 1012.6